Weather History for K14Y - December, 2013

Change the Weather History Date:

Tuesday, December 17, 2013

  Actual Average (KAXN) Record (KAXN)
Temperature  
Mean Temperature 14 °F -  
Max Temperature 30 °F 20 °F 50 °F (1962)
Min Temperature -2 °F 6 °F -24 °F (1953)
Degree Days  
Heating Degree Days 51    
Moisture  
Dew Point 12 °F    
Average Humidity 79    
Maximum Humidity 92    
Minimum Humidity 67    
Precipitation  
Precipitation 0.00 in - - ()
Sea Level Pressure  
Sea Level Pressure 29.96 in    
Wind  
Wind Speed 14 mph (West)    
Max Wind Speed 30 mph    
Max Gust Speed 44 mph    
Visibility 8 miles    
Events Snow    
Averages and records for this station are not official NWS values.
T = Trace of Precipitation, MM = Missing Value Source: NWS Daily Summary

Daily Weather History Graph

Daily Weather History Graph

Search for Another Location

Airport or City:

Trip Planner

Search our weather history database for the weather conditions in past years. The results will help you decide how hot, cold, wet, or windy it might be!

Date:

Astronomy

Dec. 17, 2013 Rise Set
Actual Time 7:55 AM CST 4:35 PM CST
Civil Twilight 7:21 AM CST 5:10 PM CST
Nautical Twilight 6:43 AM CST 5:48 PM CST
Astronomical Twilight 6:07 AM CST 6:24 PM CST
Moon 5:19 PM CST (12/17) 7:49 AM CST (12/17)
Length of Visible Light 9h 48m
Length of Day
8h 39m
Full, 100% of the Moon is Illuminated
Dec 17
Full
Dec 25
Last Quarter
Jan 1
New
Jan 7
First Quarter
Jan 15
Full

Hourly Weather History & Observations

Time (CST) Temp. Windchill Dew Point Humidity Pressure Visibility Wind Dir Wind Speed Gust Speed Precip Events Conditions
12:01 AM 30.2 °F 19.8 °F 26.6 °F 86% 29.83 in 7.0 mi WSW 13.8 mph 25.3 mph N/A   Overcast
12:21 AM 30.2 °F 19.3 °F 26.6 °F 86% 29.82 in 10.0 mi West 15.0 mph 21.9 mph N/A   Overcast
12:42 AM 30.2 °F 20.2 °F 26.6 °F 86% 29.82 in 10.0 mi West 12.7 mph 23.0 mph N/A   Mostly Cloudy
1:01 AM 30.2 °F 19.8 °F 26.6 °F 86% 29.82 in 7.0 mi West 13.8 mph 24.2 mph N/A   Overcast
1:21 AM 30.2 °F 19.8 °F 26.6 °F 86% 29.83 in 10.0 mi West 13.8 mph 20.7 mph N/A   Overcast
1:42 AM 30.2 °F 18.9 °F 26.6 °F 86% 29.83 in 3.0 mi West 16.1 mph 23.0 mph N/A Snow Light Snow
2:01 AM 30.2 °F 19.3 °F 26.6 °F 86% 29.84 in 7.0 mi West 15.0 mph 24.2 mph N/A Snow Light Snow
2:21 AM 30.2 °F 18.5 °F 24.8 °F 80% 29.84 in 7.0 mi West 17.3 mph 23.0 mph N/A   Mostly Cloudy
2:41 AM 30.2 °F 18.5 °F 23.0 °F 75% 29.85 in 7.0 mi West 17.3 mph 26.5 mph N/A   Mostly Cloudy
3:02 AM 30.2 °F 21.3 °F 23.0 °F 75% 29.85 in 10.0 mi West 10.4 mph - N/A   Mostly Cloudy
3:21 AM 28.4 °F 17.0 °F 23.0 °F 80% 29.86 in 10.0 mi West 15.0 mph 18.4 mph N/A   Scattered Clouds
3:41 AM 28.4 °F 18.5 °F 23.0 °F 80% 29.85 in 10.0 mi West 11.5 mph 19.6 mph N/A   Scattered Clouds
4:02 AM 28.4 °F 18.0 °F 23.0 °F 80% 29.86 in 10.0 mi West 12.7 mph 18.4 mph N/A   Scattered Clouds
4:21 AM 28.4 °F 19.7 °F 23.0 °F 80% 29.86 in 10.0 mi West 9.2 mph 18.4 mph N/A   Scattered Clouds
4:41 AM 26.6 °F 15.2 °F 23.0 °F 86% 29.86 in 10.0 mi West 13.8 mph 19.6 mph N/A   Mostly Cloudy
5:02 AM 26.6 °F 14.3 °F 21.2 °F 80% 29.87 in 10.0 mi West 16.1 mph 25.3 mph N/A   Mostly Cloudy
5:21 AM 26.6 °F 14.3 °F 21.2 °F 80% 29.88 in 10.0 mi West 16.1 mph 23.0 mph N/A   Scattered Clouds
5:41 AM 24.8 °F 13.4 °F 19.4 °F 80% 29.88 in 10.0 mi West 12.7 mph 24.2 mph N/A   Scattered Clouds
6:02 AM 23.0 °F 10.6 °F 19.4 °F 86% 29.89 in 10.0 mi West 13.8 mph 18.4 mph N/A   Clear
6:22 AM 23.0 °F 9.6 °F 17.6 °F 80% 29.89 in 10.0 mi West 16.1 mph 24.2 mph N/A   Clear
6:41 AM 23.0 °F 9.6 °F 17.6 °F 80% 29.89 in 10.0 mi West 16.1 mph 24.2 mph N/A   Clear
7:01 AM 23.0 °F 10.1 °F 17.6 °F 80% 29.89 in 10.0 mi West 15.0 mph 23.0 mph N/A   Mostly Cloudy
7:21 AM 23.0 °F 10.1 °F 17.6 °F 80% 29.90 in 7.0 mi West 15.0 mph 26.5 mph N/A   Overcast
7:42 AM 23.0 °F 9.2 °F 17.6 °F 80% 29.90 in 5.0 mi West 17.3 mph 25.3 mph N/A   Haze
8:01 AM 23.0 °F 8.7 °F 17.6 °F 80% 29.91 in 3.0 mi West 18.4 mph 29.9 mph N/A   Haze
8:22 AM 23.0 °F 9.6 °F 17.6 °F 80% 29.92 in 5.0 mi West 16.1 mph 19.6 mph N/A Snow Light Snow
8:42 AM 23.0 °F 9.2 °F 17.6 °F 80% 29.92 in 3.0 mi West 17.3 mph 25.3 mph N/A Snow Light Snow
9:01 AM 23.0 °F 9.2 °F 17.6 °F 80% 29.93 in 5.0 mi West 17.3 mph 25.3 mph N/A Snow Light Snow
9:22 AM 23.0 °F 8.0 °F 17.6 °F 80% 29.93 in 2.5 mi West 20.7 mph 26.5 mph N/A Snow Light Snow
9:42 AM 23.0 °F 10.1 °F 19.4 °F 86% 29.94 in 0.5 mi WNW 15.0 mph 24.2 mph N/A Snow Light Snow
10:01 AM 21.2 °F 4.9 °F 17.6 °F 86% 29.95 in 0.2 mi WNW 23.0 mph 34.5 mph N/A Snow Light Snow
10:21 AM 21.2 °F 5.2 °F 14.0 °F 74% 29.96 in 0.8 mi WNW 21.9 mph 34.5 mph N/A Snow Light Snow
10:42 AM 21.2 °F 3.0 °F 14.0 °F 74% 29.98 in 1.5 mi WNW 29.9 mph 43.7 mph N/A Snow Light Snow
11:02 AM 19.4 °F 4.1 °F 12.2 °F 74% 29.99 in 1.8 mi WNW 18.4 mph 29.9 mph N/A Snow Light Snow
11:22 AM 19.4 °F 2.1 °F 12.2 °F 74% 29.99 in 1.0 mi WNW 24.2 mph 33.4 mph N/A Snow Light Snow
11:42 AM 19.4 °F 2.8 °F 12.2 °F 74% 30.00 in 1.5 mi WNW 21.9 mph 31.1 mph N/A   Haze
12:02 PM 19.4 °F 1.4 °F 10.4 °F 68% 29.99 in 2.0 mi WNW 26.5 mph 31.1 mph N/A   Haze
12:21 PM 17.6 °F -0.3 °F 10.4 °F 73% 30.00 in 2.0 mi WNW 24.2 mph 31.1 mph N/A   Haze
12:42 PM 19.4 °F 4.5 °F 10.4 °F 68% 30.00 in 4.0 mi West 17.3 mph 25.3 mph N/A   Haze
1:02 PM 17.6 °F 1.3 °F 10.4 °F 73% 30.00 in 7.0 mi WNW 19.6 mph - N/A Snow Light Snow
1:22 PM 19.4 °F 5.0 °F 12.2 °F 74% 30.00 in 5.0 mi West 16.1 mph 21.9 mph N/A Snow Light Snow
1:42 PM 17.6 °F 1.7 °F 10.4 °F 73% 30.00 in 7.0 mi WNW 18.4 mph 24.2 mph N/A   Overcast
2:02 PM 17.6 °F 3.2 °F 10.4 °F 73% 30.00 in 7.0 mi WNW 15.0 mph 20.7 mph N/A Snow Light Snow
2:21 PM 17.6 °F 2.2 °F 8.6 °F 68% 30.01 in 7.0 mi West 17.3 mph 26.5 mph N/A   Mostly Cloudy
2:41 PM 15.8 °F -1.5 °F 8.6 °F 73% 30.02 in 5.0 mi West 20.7 mph 26.5 mph N/A   Haze
3:02 PM 15.8 °F -0.2 °F 8.6 °F 73% 30.02 in 7.0 mi WNW 17.3 mph 26.5 mph N/A   Clear
3:22 PM 15.8 °F 0.3 °F 6.8 °F 68% 30.02 in 10.0 mi WNW 16.1 mph 23.0 mph N/A   Clear
3:41 PM 15.8 °F 2.1 °F 6.8 °F 68% 30.02 in 10.0 mi West 12.7 mph - N/A   Clear
4:02 PM 14.0 °F -3.0 °F 5.0 °F 67% 30.03 in 10.0 mi WNW 18.4 mph 23.0 mph N/A   Clear
4:22 PM 14.0 °F -0.2 °F 5.0 °F 67% 30.03 in 10.0 mi WNW 12.7 mph 21.9 mph N/A   Clear
4:41 PM 12.2 °F -2.5 °F 5.0 °F 73% 30.04 in 10.0 mi WNW 12.7 mph 18.4 mph N/A   Clear
5:02 PM 12.2 °F 0.7 °F 5.0 °F 73% 30.04 in 10.0 mi West 8.1 mph - N/A   Clear
5:22 PM 12.2 °F 0.7 °F 5.0 °F 73% 30.05 in 10.0 mi West 8.1 mph - N/A   Clear
5:42 PM 12.2 °F 2.9 °F 5.0 °F 73% 30.05 in 10.0 mi West 5.8 mph - N/A   Clear
6:01 PM 10.4 °F -0.4 °F 5.0 °F 79% 30.06 in 10.0 mi West 6.9 mph - N/A   Clear
6:22 PM 10.4 °F 0.8 °F 3.2 °F 73% 30.05 in 10.0 mi WNW 5.8 mph - N/A   Clear
6:42 PM 8.6 °F 2.0 °F 3.2 °F 79% 30.05 in 10.0 mi West 3.5 mph - N/A   Clear
7:02 PM 8.6 °F 2.0 °F 3.2 °F 79% 30.05 in 10.0 mi WNW 3.5 mph - N/A   Clear
7:22 PM 6.8 °F -0.1 °F 1.4 °F 79% 30.05 in 10.0 mi West 3.5 mph - N/A   Clear
7:42 PM 8.6 °F - 3.2 °F 79% 30.04 in 10.0 mi Calm Calm - N/A   Clear
8:01 PM 3.2 °F - -0.4 °F 85% 30.05 in 10.0 mi Calm Calm - N/A   Clear
8:21 PM 3.2 °F - -0.4 °F 85% 30.05 in 10.0 mi Calm Calm - N/A   Clear
8:41 PM 3.2 °F - -0.4 °F 85% 30.05 in 10.0 mi Calm Calm - N/A   Clear
9:01 PM 3.2 °F -6.2 °F 1.4 °F 92% 30.05 in 10.0 mi SW 4.6 mph - N/A   Clear
9:22 PM 1.4 °F - -0.4 °F 92% 30.04 in 10.0 mi Calm Calm - N/A   Clear
9:42 PM 1.4 °F - -0.4 °F 92% 30.03 in 10.0 mi Calm Calm - N/A   Clear
10:01 PM 1.4 °F - -0.4 °F 92% 30.02 in 10.0 mi Calm Calm - N/A   Clear
10:21 PM -0.4 °F - -4.0 °F 85% 30.02 in 10.0 mi Calm Calm - N/A   Clear
10:41 PM -2.2 °F - -5.8 °F 85% 30.02 in 10.0 mi Calm Calm - N/A   Clear
11:01 PM -2.2 °F - -5.8 °F 85% 30.01 in 7.0 mi Calm Calm - N/A   Clear
11:22 PM -0.4 °F - -4.0 °F 85% 30.00 in 10.0 mi Calm Calm - N/A   Clear
11:42 PM 1.4 °F - -0.4 °F 92% 30.00 in 10.0 mi Calm Calm - N/A   Clear